Springfield, IL

2:14 PM CST on December 05, 2019 (GMT -0600)
Capital

Weather History for KSPI - October, 2019

Change the Weather History Date:

Sunday, October 27, 2019

  Actual Average Record
Temperature  
Mean Temperature 52 °F 52 °F  
Max Temperature 64 °F 62 °F 84 °F (1927)
Min Temperature 39 °F 41 °F 23 °F (2013)
Degree Days  
Heating Degree Days 13 14  
Month to date heating degree days 278 270  
Since 1 July heating degree days 279 351  
Cooling Degree Days 0 0  
Month to date cooling degree days 32 19  
Year to date cooling degree days 1309 1118  
Growing Degree Days 1 (Base 50)    
Moisture  
Dew Point 44 °F    
Average Humidity 76    
Maximum Humidity 96    
Minimum Humidity 56    
Precipitation  
Precipitation 0.00 in 0.11 in 2.08 in (1919)
Month to date precipitation 3.04 2.74  
Year to date precipitation 43.59 31.29  
Snow  
Snow 0.00 in 0.00 in 0.10 in (1967)
Month to date snowfall 0.0 0.0  
Since 1 July snowfall 0.0 0.0  
Since 1 September snowfall 0.0 0.0  
Snow Depth 0.00 in    
Sea Level Pressure  
Sea Level Pressure 29.92 in    
Wind  
Wind Speed 7 mph (SW)    
Max Wind Speed 17 mph    
Max Gust Speed 24 mph    
Visibility 7 miles    
Events      
T = Trace of Precipitation, MM = Missing Value Source: NWS Daily Summary

Daily Weather History Graph

Daily Weather History Graph

Search for Another Location

Airport or City:

Astronomy

Oct. 27, 2019 Rise Set
Actual Time 7:21 AM CDT 6:02 PM CDT
Civil Twilight 6:53 AM CDT 6:30 PM CDT
Nautical Twilight 6:22 AM CDT 7:02 PM CDT
Astronomical Twilight 5:50 AM CDT 7:33 PM CDT
Moon 6:30 AM CDT (10/27) 6:12 PM CDT (10/27)
Length of Visible Light 11h 36m
Length of Day
10h 41m
Waning Crescent, 0% of the Moon is Illuminated
Oct 27
Waning Crescent
Oct 27
New
Nov 4
First Quarter
Nov 12
Full
Nov 19
Last Quarter

Hourly Weather History & Observations

Time (CDT) Temp. Windchill Dew Point Humidity Pressure Visibility Wind Dir Wind Speed Gust Speed Precip Events Conditions
12:52 AM 46.0 °F 39.6 °F 44.1 °F 93% 29.73 in 3.0 mi West 15.0 mph 23.0 mph N/A   Overcast
1:52 AM 46.0 °F 39.6 °F 44.1 °F 93% 29.78 in 3.0 mi West 15.0 mph - N/A   Overcast
2:52 AM 46.0 °F 39.9 °F 44.1 °F 93% 29.81 in 4.0 mi West 13.8 mph - N/A   Overcast
2:59 AM 46.0 °F 40.2 °F 44.1 °F 93% 29.80 in 4.0 mi West 12.7 mph - N/A   Overcast
3:50 AM 42.8 °F 37.0 °F 41.0 °F 93% 29.84 in 3.0 mi WSW 10.4 mph - N/A   Scattered Clouds
3:52 AM 43.0 °F 37.2 °F 41.0 °F 93% 29.84 in 3.0 mi WSW 10.4 mph - N/A   Partly Cloudy
4:52 AM 41.0 °F 35.8 °F 39.0 °F 93% 29.86 in 3.0 mi WSW 8.1 mph - N/A   Clear
5:52 AM 39.0 °F 35.7 °F 37.0 °F 93% 29.89 in 2.5 mi WSW 4.6 mph - N/A   Clear
6:30 AM 39.9 °F 35.8 °F 37.9 °F 93% 29.88 in 3.0 mi SSW 5.8 mph - N/A   Clear
6:52 AM 39.9 °F 37.8 °F 37.9 °F 93% 29.90 in 3.0 mi SW 3.5 mph - N/A   Clear
7:30 AM 39.9 °F 36.7 °F 37.9 °F 93% 29.91 in 2.5 mi SW 4.6 mph - N/A   Clear
7:37 AM 39.0 °F 35.7 °F 37.0 °F 93% 29.91 in 3.0 mi SSW 4.6 mph - N/A   Clear
7:52 AM 39.9 °F 37.8 °F 37.9 °F 93% 29.93 in 3.0 mi SSW 3.5 mph - N/A   Clear
8:52 AM 44.1 °F 42.5 °F 41.0 °F 89% 29.96 in 3.0 mi SSW 3.5 mph - N/A   Clear
9:52 AM 48.9 °F - 44.1 °F 83% 29.97 in 9.0 mi SSW 4.6 mph - N/A   Clear
10:52 AM 53.1 °F - 46.0 °F 77% 29.98 in 10.0 mi SW 5.8 mph - N/A   Clear
11:52 AM 57.0 °F - 48.0 °F 72% 29.98 in 10.0 mi SW 6.9 mph - N/A   Clear
12:52 PM 57.9 °F - 48.9 °F 72% 29.97 in 10.0 mi South 9.2 mph - N/A   Clear
1:52 PM 60.1 °F - 48.9 °F 67% 29.95 in 10.0 mi Variable 6.9 mph - N/A   Clear
2:52 PM 62.1 °F - 48.9 °F 62% 29.95 in 10.0 mi South 10.4 mph - N/A   Clear
3:52 PM 63.0 °F - 48.0 °F 58% 29.96 in 10.0 mi SSW 11.5 mph 21.9 mph N/A   Clear
4:52 PM 63.0 °F - 46.0 °F 54% 29.97 in 10.0 mi SSW 8.1 mph - N/A   Clear
5:52 PM 59.0 °F - 46.9 °F 64% 29.98 in 10.0 mi SSW 5.8 mph - N/A   Clear
6:52 PM 53.1 °F - 46.0 °F 77% 29.99 in 10.0 mi South 5.8 mph - N/A   Clear
7:52 PM 53.1 °F - 48.0 °F 83% 29.99 in 10.0 mi South 5.8 mph - N/A   Clear
8:52 PM 53.1 °F - 48.0 °F 83% 29.99 in 10.0 mi South 5.8 mph - N/A   Clear
9:52 PM 48.9 °F - 46.0 °F 90% 30.00 in 8.0 mi South 5.8 mph - N/A   Clear
10:52 PM 53.1 °F - 48.0 °F 83% 30.00 in 10.0 mi South 6.9 mph - N/A   Clear
11:52 PM 52.0 °F - 46.9 °F 83% 30.00 in 10.0 mi South 8.1 mph - N/A   Clear